QPF
0.00 0.00 0.00 0.00 0.00 0.00 0.00 0.00 0.01 0.03 0.01 0.01 0.01 0.00 0.00 0.00 0.00 0.00 0.00 0.00 0.00 0.01 0.00 0.00 0.00 0.00 0.03 0.11 0.13 0.06 0.02 0.00 0.00 0.00 0.00 0.00 0.00 0.00 0.00 0.00 0.00 0.00 0.00 0.00
0.00 0.00 0.00 0.00 0.00 0.00 0.00 0.00 0.01 0.00 0.00 0.03 0.04 0.01 0.00 0.00 0.00 0.00 0.00 0.00 0.00 0.00 0.00 0.00 0.00 0.00 0.01 0.09 0.11 0.13 0.06 0.01 0.00 0.00 0.00 0.00 0.00 0.00 0.00 0.00 0.00 0.00 0.00 0.00
0.00 0.00 0.00 0.00 0.00 0.00 0.00 0.00 0.00 0.00 0.00 0.01 0.03 0.03 0.00 0.01 0.00 0.00 0.00 0.00 0.00 0.00 0.00 0.00 0.00 0.01 0.01 0.02 0.08 0.12 0.11 0.04 0.00 0.00 0.00 0.00 0.00 0.00 0.00 0.00 0.00 0.00 0.00 0.00
0.00 0.00 0.00 0.00 0.00 0.00 0.00 0.00 0.00 0.00 0.00 0.01 0.01 0.02 0.00 0.00 0.01 0.00 0.01 0.00 0.00 0.00 0.00 0.00 0.00 0.01 0.04 0.02 0.02 0.10 0.15 0.08 0.01 0.00 0.00 0.00 0.00 0.00 0.00 0.00 0.00 0.00 0.00 0.00
0.00 0.00 0.00 0.00 0.00 0.00 0.00 0.00 0.00 0.00 0.00 0.01 0.01 0.02 0.02 0.01 0.04 0.01 0.01 0.00 0.00 0.00 0.00 0.00 0.00 0.01 0.06 0.07 0.04 0.05 0.09 0.07 0.02 0.02 0.02 0.00 0.00 0.00 0.00 0.00 0.00 0.00 0.00 0.00
0.00 0.00 0.00 0.00 0.00 0.00 0.00 0.00 0.00 0.00 0.00 0.02 0.00 0.01 0.04 0.06 0.06 0.01 0.00 0.00 0.00 0.01 0.01 0.01 0.00 0.01 0.04 0.04 0.04 0.03 0.03 0.02 0.02 0.02 0.01 0.01 0.00 0.00 0.00 0.00 0.00 0.00 0.00 0.00
0.00 0.00 0.00 0.00 0.00 0.00 0.00 0.00 0.00 0.00 0.01 0.01 0.00 0.00 0.03 0.03 0.06 0.05 0.02 0.03 0.03 0.03 0.03 0.03 0.02 0.01 0.01 0.00 0.01 0.00 0.01 0.01 0.00 0.00 0.00 0.00 0.00 0.00 0.00 0.00 0.00 0.00 0.00 0.00
0.00 0.00 0.00 0.00 0.00 0.00 0.00 0.00 0.00 0.00 0.00 0.00 0.00 0.00 0.00 0.00 0.00 0.00 0.03 0.05 0.06 0.03 0.04 0.03 0.05 0.02 0.01 0.00 0.00 0.00 0.00 0.00 0.00 0.00 0.00 0.00 0.00 0.00 0.00 0.00 0.00 0.00 0.00 0.00
0.00 0.00 0.00 0.00 0.00 0.00 0.00 0.00 0.00 0.00 0.00 0.00 0.00 0.00 0.00 0.00 0.00 0.00 0.00 0.01 0.05 0.11 0.07 0.00 0.02 0.00 0.00 0.00 0.00 0.00 0.00 0.00 0.00 0.00 0.00 0.00 0.00 0.00 0.00 0.00 0.00 0.00 0.00 0.00
0.00 0.00 0.00 0.00 0.00 0.00 0.00 0.00 0.00 0.00 0.00 0.00 0.00 0.00 0.00 0.00 0.00 0.00 0.00 0.00 0.00 0.02 0.06 0.01 0.00 0.00 0.00 0.00 0.00 0.00 0.00 0.00 0.00 0.00 0.00 0.00 0.00 0.00 0.00 0.00 0.00 0.00 0.00 0.00
0.00 0.00 0.00 0.00 0.00 0.00 0.00 0.00 0.00 0.00 0.00 0.00 0.00 0.00 0.00 0.00 0.00 0.00 0.00 0.00 0.00 0.00 0.00 0.00 0.00 0.00 0.00 0.00 0.00 0.00 0.00 0.00 0.00 0.00 0.00 0.00 0.00 0.00 0.00 0.00 0.00 0.00 0.00 0.00
0.00 0.00 0.00 0.00 0.00 0.00 0.00 0.00 0.00 0.00 0.00 0.00 0.00 0.00 0.00 0.00 0.00 0.00 0.00 0.00 0.00 0.00 0.00 0.00 0.00 0.00 0.00 0.00 0.00 0.00 0.00 0.00 0.00 0.00 0.00 0.00 0.00 0.00 0.00 0.00 0.00 0.00 0.00 0.00
0.00 0.00 0.00 0.00 0.00 0.00 0.00 0.00 0.00 0.00 0.00 0.00 0.00 0.00 0.00 0.00 0.00 0.00 0.00 0.00 0.00 0.00 0.00 0.00 0.00 0.00 0.00 0.00 0.00 0.00 0.00 0.00 0.00 0.00 0.00 0.00 0.00 0.00 0.00 0.00 0.00 0.00 0.00 0.00
0.00 0.00 0.00 0.00 0.00 0.00 0.00 0.00 0.00 0.00 0.00 0.00 0.00 0.00 0.00 0.00 0.00 0.00 0.00 0.00 0.00 0.00 0.00 0.00 0.00 0.00 0.00 0.00 0.00 0.00 0.00 0.00 0.00 0.00 0.00 0.00 0.00 0.00 0.00 0.00 0.00 0.00 0.00 0.00
0.00 0.00 0.00 0.00 0.00 0.00 0.00 0.00 0.00 0.00 0.00 0.00 0.00 0.00 0.00 0.00 0.00 0.00 0.00 0.00 0.00 0.00 0.00 0.00 0.00 0.00 0.00 0.00 0.00 0.00 0.00 0.00 0.00 0.00 0.00 0.00 0.00 0.00 0.00 0.00 0.00 0.00 0.00 0.00
0.00 0.00 0.00 0.00 0.00 0.00 0.00 0.00 0.00 0.00 0.00 0.00 0.00 0.00 0.00 0.00 0.00 0.00 0.00 0.00 0.00 0.00 0.00 0.00 0.00 0.00 0.00 0.00 0.00 0.00 0.00 0.00 0.00 0.00 0.00 0.00 0.00 0.00 0.00 0.00 0.00 0.00 0.00 0.00
0.00 0.00 0.00 0.00 0.00 0.00 0.00 0.00 0.00 0.00 0.00 0.00 0.00 0.00 0.00 0.00 0.00 0.00 0.00 0.00 0.00 0.00 0.00 0.00 0.00 0.00 0.00 0.00 0.00 0.00 0.00 0.00 0.00 0.00 0.00 0.00 0.00 0.00 0.00 0.00 0.00 0.00 0.00 0.00
0.00 0.00 0.00 0.00 0.00 0.00 0.00 0.00 0.00 0.00 0.00 0.00 0.00 0.00 0.00 0.00 0.00 0.00 0.00 0.00 0.00 0.00 0.00 0.00 0.00 0.00 0.00 0.00 0.00 0.00 0.00 0.00 0.00 0.00 0.00 0.00 0.00 0.00 0.00 0.00 0.00 0.00 0.00 0.00
0.00 0.00 0.00 0.00 0.00 0.00 0.00 0.00 0.00 0.00 0.00 0.00 0.00 0.00 0.00 0.00 0.00 0.00 0.00 0.00 0.00 0.00 0.00 0.00 0.00 0.00 0.00 0.00 0.00 0.00 0.00 0.00 0.00 0.00 0.00 0.00 0.00 0.00 0.00 0.00 0.00 0.00 0.00 0.00
0.00 0.00 0.00 0.00 0.00 0.00 0.00 0.00 0.00 0.00 0.00 0.00 0.00 0.00 0.00 0.00 0.00 0.00 0.00 0.00 0.00 0.00 0.00 0.00 0.00 0.00 0.00 0.00 0.00 0.00 0.00 0.00 0.00 0.00 0.00 0.00 0.00 0.00 0.00 0.00 0.00 0.00 0.00 0.00
0.00 0.00 0.00 0.00 0.00 0.00 0.00 0.00 0.00 0.00 0.00 0.00 0.00 0.00 0.00 0.00 0.00 0.00 0.00 0.00 0.00 0.00 0.00 0.00 0.00 0.00 0.00 0.00 0.00 0.00 0.00 0.00 0.00 0.00 0.00 0.00 0.00 0.00 0.00 0.00 0.00 0.00 0.00 0.00
0.00 0.00 0.00 0.00 0.00 0.00 0.00 0.00 0.00 0.00 0.00 0.00 0.00 0.00 0.00 0.00 0.00 0.00 0.00 0.00 0.00 0.00 0.00 0.00 0.00 0.00 0.00 0.00 0.00 0.00 0.00 0.00 0.00 0.00 0.00 0.00 0.00 0.00 0.00 0.00 0.00 0.00 0.00 0.00
0.00 0.00 0.00 0.00 0.00 0.00 0.00 0.00 0.00 0.00 0.00 0.00 0.00 0.00 0.00 0.00 0.00 0.00 0.00 0.00 0.00 0.00 0.00 0.00 0.00 0.00 0.00 0.00 0.00 0.00 0.00 0.00 0.00 0.00 0.00 0.00 0.00 0.00 0.00 0.00 0.00 0.00 0.00 0.00
0.00 0.00 0.00 0.00 0.00 0.00 0.00 0.00 0.00 0.00 0.00 0.00 0.00 0.00 0.00 0.00 0.00 0.00 0.00 0.00 0.00 0.00 0.00 0.00 0.00 0.00 0.00 0.00 0.00 0.00 0.00 0.00 0.00 0.00 0.00 0.00 0.00 0.00 0.00 0.00 0.00 0.00 0.00 0.00
0.00 0.00 0.00 0.00 0.00 0.00 0.00 0.00 0.00 0.00 0.00 0.00 0.00 0.00 0.00 0.00 0.00 0.00 0.00 0.00 0.00 0.00 0.00 0.00 0.00 0.00 0.00 0.00 0.00 0.00 0.00 0.00 0.00 0.00 0.00 0.00 0.00 0.00 0.00 0.00 0.00 0.00 0.00 0.00
0.00 0.00 0.00 0.00 0.00 0.00 0.00 0.00 0.00 0.00 0.00 0.00 0.00 0.00 0.00 0.00 0.00 0.00 0.00 0.00 0.00 0.00 0.00 0.00 0.00 0.00 0.00 0.00 0.00 0.00 0.00 0.00 0.00 0.00 0.00 0.00 0.00 0.00 0.00 0.00 0.00 0.00 0.00 0.00
MSLP
1015.28 1015.56 1014.95 1014.65 1014.62 1014.54 1014.42 1013.96 1013.35 1012.56 1012.41 1011.98 1011.52 1010.96 1010.50 1009.99 1009.54 1009.25 1009.42 1009.65 1009.98 1010.96 1011.91 1013.07 1013.49 1013.94 1014.34 1014.84 1015.47 1015.82 1016.15 1016.17 1016.20 1016.54 1017.04 1017.59 1018.17 1018.40 1018.75 1018.85 1018.92 1019.34 1019.63 1019.87
1014.83 1014.58 1013.83 1013.82 1013.72 1013.59 1013.31 1012.84 1012.23 1011.60 1011.67 1011.93 1011.66 1010.83 1009.77 1009.18 1008.81 1008.76 1009.14 1009.42 1009.92 1011.18 1012.27 1013.08 1013.69 1014.06 1014.61 1014.86 1015.34 1015.82 1016.72 1016.34 1016.16 1016.07 1016.74 1017.36 1018.09 1018.48 1018.82 1018.86 1018.96 1019.23 1019.61 1019.90
1014.73 1013.71 1013.40 1013.39 1013.10 1012.87 1012.54 1012.13 1011.94 1011.93 1011.47 1011.64 1011.65 1010.56 1009.51 1008.48 1008.39 1008.22 1008.53 1009.06 1009.80 1010.75 1012.01 1012.86 1013.64 1013.98 1014.43 1014.76 1015.53 1015.69 1016.38 1016.44 1016.21 1015.85 1016.49 1017.40 1018.01 1018.46 1018.97 1019.04 1019.22 1019.47 1019.61 1019.83
1014.08 1013.12 1013.13 1013.08 1012.83 1012.68 1012.31 1011.80 1011.77 1011.74 1011.78 1011.94 1011.26 1011.31 1009.98 1008.46 1008.22 1008.35 1008.46 1009.13 1009.68 1010.53 1011.53 1012.31 1013.21 1013.79 1014.12 1014.48 1015.31 1016.10 1016.73 1017.09 1016.56 1016.11 1016.55 1017.49 1017.86 1018.52 1018.77 1018.95 1019.29 1019.51 1019.55 1019.84
1014.18 1013.21 1013.25 1013.01 1012.47 1012.57 1012.12 1011.49 1011.55 1011.55 1011.76 1011.65 1010.86 1011.10 1009.50 1008.40 1008.45 1008.33 1008.68 1009.11 1009.53 1010.15 1010.96 1011.76 1012.53 1013.16 1013.72 1014.37 1014.97 1015.35 1015.78 1016.67 1016.13 1017.02 1016.97 1017.93 1018.32 1018.24 1018.35 1018.78 1019.18 1019.49 1019.74 1019.98
1014.10 1013.23 1013.41 1012.93 1012.47 1012.22 1012.05 1011.76 1010.71 1010.79 1011.77 1011.95 1011.23 1011.00 1010.06 1009.58 1009.50 1008.19 1008.27 1008.78 1009.21 1009.76 1010.48 1011.27 1012.01 1012.80 1013.41 1014.03 1014.54 1015.14 1015.65 1016.48 1017.08 1016.68 1017.63 1018.05 1018.54 1018.33 1018.15 1018.86 1019.36 1019.53 1019.76 1020.19
1013.99 1013.03 1013.06 1013.30 1012.82 1011.80 1012.32 1012.34 1012.37 1012.27 1012.46 1012.02 1011.19 1010.88 1010.53 1009.99 1009.74 1009.49 1009.33 1008.67 1008.88 1009.43 1010.22 1010.98 1011.60 1012.34 1013.16 1013.91 1014.49 1015.11 1015.20 1015.40 1015.68 1016.81 1017.85 1017.85 1018.11 1018.35 1018.37 1018.72 1019.39 1019.91 1019.91 1020.47
1015.11 1013.76 1013.27 1013.28 1013.24 1013.17 1012.93 1013.15 1013.95 1014.13 1013.73 1012.64 1011.27 1010.97 1010.62 1010.15 1009.84 1009.53 1009.47 1009.41 1009.15 1009.25 1009.94 1010.65 1011.43 1012.20 1012.92 1013.76 1014.45 1015.04 1015.53 1015.91 1016.08 1016.61 1017.14 1017.86 1018.03 1017.75 1018.43 1018.31 1018.93 1019.60 1019.67 1020.43
1015.89 1014.40 1013.49 1013.31 1013.30 1013.67 1013.03 1013.24 1013.73 1014.24 1013.50 1013.23 1011.57 1011.12 1010.71 1010.55 1010.34 1010.15 1010.00 1009.84 1009.77 1010.08 1010.14 1010.65 1011.03 1011.76 1012.53 1013.35 1014.06 1014.69 1015.41 1015.86 1016.21 1016.76 1016.67 1017.94 1017.84 1017.39 1017.92 1018.34 1018.64 1018.93 1019.52 1019.66
1016.70 1015.87 1013.81 1013.45 1013.56 1013.54 1013.76 1013.74 1013.79 1014.09 1014.34 1013.57 1012.14 1011.69 1011.60 1011.39 1011.06 1010.59 1010.51 1010.42 1010.24 1010.18 1010.34 1010.58 1011.01 1011.72 1012.24 1012.91 1013.66 1014.38 1014.90 1015.18 1015.70 1015.75 1016.35 1017.07 1017.00 1017.23 1018.31 1018.36 1018.64 1019.04 1019.28 1019.52
1017.07 1016.72 1014.61 1013.65 1013.54 1013.46 1013.74 1013.66 1013.79 1014.04 1014.30 1014.45 1013.39 1012.27 1011.37 1011.30 1011.05 1010.89 1010.71 1010.72 1010.59 1010.54 1010.48 1010.60 1010.98 1011.53 1011.89 1012.39 1012.99 1013.64 1014.20 1014.47 1015.00 1015.42 1015.80 1016.01 1016.78 1017.02 1017.29 1017.95 1018.42 1019.03 1019.27 1019.17
1017.28 1017.09 1015.96 1014.08 1013.60 1013.65 1013.76 1013.85 1014.07 1014.56 1014.56 1014.44 1013.70 1012.54 1011.50 1011.22 1010.82 1010.78 1010.70 1010.76 1010.80 1010.88 1011.11 1011.18 1011.38 1011.74 1012.08 1012.56 1012.89 1013.30 1013.50 1014.02 1014.41 1014.56 1014.88 1015.84 1016.40 1016.78 1017.08 1017.79 1018.37 1018.72 1019.01 1019.05
1017.59 1017.41 1016.59 1014.66 1014.59 1014.10 1014.00 1013.83 1014.09 1014.63 1014.72 1014.36 1013.66 1012.29 1011.42 1010.97 1010.96 1010.75 1010.80 1010.91 1010.95 1011.12 1011.45 1011.75 1012.09 1012.34 1012.57 1012.85 1013.28 1013.58 1013.87 1014.28 1014.68 1014.59 1015.14 1015.71 1016.07 1016.65 1017.08 1017.35 1017.81 1018.40 1018.80 1018.97
1018.01 1017.81 1017.31 1016.58 1015.44 1015.14 1014.42 1013.95 1014.28 1014.59 1014.96 1013.95 1012.93 1012.08 1011.65 1011.36 1011.21 1011.06 1010.94 1011.10 1011.37 1011.48 1011.43 1011.93 1012.26 1012.48 1012.71 1013.10 1013.43 1013.68 1013.91 1014.08 1014.42 1014.50 1015.14 1015.73 1016.01 1016.58 1017.01 1017.29 1017.89 1018.46 1018.72 1018.98
1018.38 1018.16 1017.40 1016.60 1015.88 1015.12 1014.55 1013.87 1013.72 1014.07 1013.91 1013.97 1012.51 1012.34 1011.97 1011.65 1011.60 1011.41 1011.35 1011.43 1011.73 1011.98 1012.10 1012.24 1012.47 1012.80 1012.94 1013.20 1013.47 1013.53 1013.81 1014.26 1014.33 1014.70 1015.17 1015.79 1016.01 1016.42 1016.83 1017.35 1017.93 1018.23 1018.62 1018.84
1018.35 1018.17 1017.65 1016.51 1015.61 1014.94 1014.22 1013.22 1012.98 1012.97 1013.16 1013.04 1012.87 1012.33 1011.82 1011.82 1011.79 1011.84 1011.98 1011.98 1012.07 1012.14 1012.18 1012.26 1012.43 1012.49 1012.86 1013.14 1013.49 1013.70 1013.99 1014.13 1014.40 1014.87 1015.26 1015.64 1015.92 1016.41 1016.86 1017.38 1017.76 1018.09 1018.54 1018.83
1018.44 1018.42 1018.19 1016.99 1015.73 1015.02 1013.87 1013.00 1012.32 1012.55 1012.90 1012.86 1012.86 1012.69 1012.41 1012.51 1012.69 1012.80 1012.78 1012.56 1012.68 1012.70 1012.64 1012.63 1012.71 1012.78 1012.85 1013.05 1013.22 1013.70 1013.93 1014.26 1014.65 1015.06 1015.43 1015.79 1016.11 1016.59 1016.91 1017.24 1017.67 1018.15 1018.53 1018.71
1017.97 1018.49 1018.62 1017.82 1016.59 1015.28 1013.67 1013.06 1012.78 1012.85 1013.29 1013.18 1012.88 1012.74 1012.75 1013.05 1013.21 1013.31 1013.41 1013.41 1013.41 1013.35 1013.29 1013.33 1013.25 1013.15 1013.07 1012.95 1013.19 1013.52 1013.92 1014.33 1014.74 1015.08 1015.33 1015.64 1016.06 1016.51 1016.88 1017.30 1017.73 1018.00 1018.17 1018.39
1017.79 1018.47 1018.51 1018.26 1017.19 1015.18 1013.32 1013.20 1013.03 1013.05 1013.56 1013.61 1013.47 1013.09 1013.06 1013.28 1013.71 1014.10 1014.04 1013.97 1013.96 1013.81 1013.72 1013.69 1013.68 1013.58 1013.44 1013.36 1013.43 1013.70 1014.11 1014.51 1014.89 1015.12 1015.35 1015.67 1016.04 1016.46 1016.81 1017.17 1017.51 1017.64 1017.89 1018.15
1018.03 1018.26 1018.62 1018.10 1017.54 1015.57 1013.48 1013.07 1013.02 1013.23 1013.57 1013.59 1013.65 1013.73 1013.66 1013.54 1014.16 1014.77 1014.63 1014.48 1014.41 1014.25 1014.11 1014.02 1013.94 1013.85 1013.83 1013.75 1013.68 1013.98 1014.37 1014.64 1014.92 1015.06 1015.20 1015.35 1015.69 1016.21 1016.59 1016.94 1017.28 1017.37 1017.63 1017.96
1017.81 1018.12 1017.95 1017.81 1017.08 1015.13 1013.05 1013.05 1013.20 1013.72 1014.39 1013.97 1013.98 1014.01 1014.03 1014.35 1015.02 1015.07 1014.91 1014.78 1014.74 1014.74 1014.60 1014.33 1014.23 1014.28 1014.20 1014.07 1014.07 1014.35 1014.50 1014.70 1014.63 1014.73 1015.00 1015.34 1015.68 1016.08 1016.36 1016.69 1017.01 1017.36 1017.67 1017.93
1015.30 1016.34 1016.67 1016.76 1016.35 1014.66 1012.76 1013.23 1013.43 1012.99 1013.49 1013.98 1014.35 1014.41 1014.55 1014.73 1014.81 1014.91 1015.14 1015.22 1015.09 1015.01 1014.81 1014.67 1014.59 1014.50 1014.35 1014.36 1014.49 1014.66 1014.71 1014.65 1014.75 1015.02 1015.40 1015.70 1015.96 1016.32 1016.68 1016.97 1017.31 1017.61 1018.00 1018.39
1013.68 1013.12 1013.91 1014.23 1013.63 1012.97 1012.67 1012.78 1012.94 1013.11 1013.28 1013.76 1014.30 1014.62 1014.90 1015.02 1015.19 1015.24 1015.39 1015.57 1015.70 1015.76 1015.69 1015.52 1015.42 1015.16 1014.88 1014.78 1014.84 1015.13 1015.42 1015.21 1015.27 1015.54 1015.87 1016.16 1016.39 1016.71 1016.98 1017.38 1017.77 1018.11 1018.42 1018.67
1012.30 1012.24 1012.87 1013.13 1012.72 1012.89 1012.95 1013.05 1013.23 1013.23 1013.74 1013.99 1014.35 1014.61 1014.86 1015.41 1015.70 1015.92 1016.17 1016.33 1016.45 1016.49 1016.43 1016.31 1016.07 1015.83 1015.75 1015.63 1015.70 1016.00 1016.01 1015.86 1015.89 1016.11 1016.40 1016.66 1016.89 1017.19 1017.41 1017.66 1018.06 1018.33 1018.39 1018.44
1011.54 1012.08 1012.62 1012.89 1012.80 1012.96 1013.06 1013.15 1013.46 1013.65 1014.07 1014.42 1014.77 1014.94 1015.25 1015.67 1016.07 1016.39 1016.70 1016.96 1017.11 1017.18 1017.10 1017.01 1016.92 1016.84 1016.77 1016.64 1016.68 1016.70 1016.61 1016.47 1016.64 1016.81 1017.01 1017.21 1017.32 1017.52 1017.72 1017.84 1017.95 1018.03 1017.90 1017.92
1011.08 1011.46 1012.23 1012.47 1012.33 1012.71 1013.20 1013.18 1013.62 1014.04 1014.53 1015.03 1015.36 1015.65 1015.91 1016.13 1016.51 1016.78 1017.26 1017.52 1017.66 1017.75 1017.76 1017.71 1017.71 1017.61 1017.54 1017.52 1017.57 1017.65 1017.55 1017.47 1017.53 1017.66 1017.71 1017.77 1017.91 1018.02 1018.04 1018.05 1017.98 1017.77 1017.68 1017.61
Thickness
5575 5558 5554 5557 5555 5552 5547 5547 5544 5552 5546 5548 5546 5550 5555 5564 5572 5577 5584 5594 5605 5612 5616 5616 5624 5630 5636 5639 5639 5640 5637 5646 5649 5651 5653 5655 5654 5654 5653 5654 5657 5656 5655 5653
5576 5562 5575 5571 5567 5561 5557 5553 5552 5565 5559 5548 5545 5549 5561 5569 5573 5578 5584 5591 5599 5603 5605 5609 5615 5622 5627 5632 5635 5636 5629 5637 5643 5648 5650 5649 5646 5647 5646 5649 5650 5649 5646 5646
5572 5583 5584 5576 5571 5568 5565 5562 5558 5553 5562 5551 5542 5549 5553 5570 5573 5583 5592 5595 5599 5602 5601 5603 5608 5615 5621 5628 5625 5629 5613 5631 5637 5643 5643 5641 5640 5639 5638 5639 5640 5639 5639 5638
5587 5599 5587 5578 5574 5572 5558 5574 5568 5562 5552 5530 5559 5529 5542 5567 5572 5580 5585 5591 5591 5595 5598 5600 5602 5607 5616 5622 5621 5616 5618 5618 5626 5634 5635 5634 5633 5630 5631 5632 5631 5630 5630 5628
5582 5592 5580 5577 5583 5578 5572 5578 5570 5567 5557 5553 5560 5530 5551 5574 5572 5582 5584 5588 5591 5593 5596 5598 5601 5605 5611 5615 5615 5614 5617 5611 5606 5615 5621 5619 5621 5625 5626 5624 5622 5621 5619 5618
5592 5604 5588 5587 5585 5582 5582 5576 5587 5579 5565 5532 5565 5547 5555 5564 5569 5588 5596 5595 5595 5595 5599 5598 5601 5604 5607 5609 5611 5608 5610 5611 5608 5613 5601 5610 5612 5618 5619 5615 5611 5611 5610 5606
5594 5603 5597 5587 5581 5594 5580 5568 5546 5542 5537 5546 5575 5557 5562 5573 5575 5578 5584 5596 5597 5598 5597 5598 5600 5601 5602 5603 5604 5605 5609 5614 5615 5605 5604 5606 5609 5605 5607 5607 5600 5596 5598 5592
5569 5568 5596 5589 5583 5573 5571 5569 5533 5536 5533 5542 5582 5562 5559 5579 5582 5588 5587 5588 5596 5602 5599 5598 5598 5597 5598 5595 5597 5597 5598 5602 5604 5600 5600 5598 5599 5602 5597 5600 5597 5582 5585 5582
5565 5582 5596 5592 5588 5578 5578 5567 5571 5554 5565 5537 5574 5581 5581 5578 5580 5584 5586 5588 5591 5585 5592 5594 5597 5596 5596 5594 5593 5595 5593 5594 5596 5595 5598 5587 5591 5599 5594 5589 5587 5585 5581 5581
5574 5561 5597 5595 5586 5581 5573 5576 5556 5554 5542 5551 5560 5574 5552 5557 5563 5582 5582 5582 5586 5590 5592 5594 5594 5593 5594 5594 5592 5591 5593 5594 5593 5596 5592 5588 5591 5590 5580 5580 5578 5575 5572 5570
5570 5568 5580 5592 5586 5581 5574 5574 5574 5570 5562 5539 5549 5562 5582 5550 5577 5579 5581 5581 5585 5588 5590 5594 5595 5592 5592 5592 5592 5592 5593 5595 5594 5590 5589 5590 5583 5581 5579 5574 5570 5564 5563 5565
5567 5562 5553 5584 5585 5584 5578 5575 5573 5555 5558 5554 5558 5549 5583 5583 5586 5585 5583 5584 5585 5585 5583 5585 5585 5584 5584 5585 5586 5588 5592 5593 5593 5591 5591 5582 5578 5576 5573 5567 5561 5558 5556 5556
5567 5558 5538 5580 5575 5579 5576 5579 5576 5566 5562 5552 5555 5559 5585 5585 5585 5587 5587 5583 5583 5584 5582 5580 5578 5577 5577 5579 5579 5580 5580 5580 5580 5583 5579 5574 5572 5567 5563 5561 5557 5551 5548 5546
5557 5559 5556 5549 5563 5561 5562 5570 5568 5565 5535 5562 5569 5581 5582 5580 5577 5580 5583 5584 5579 5578 5581 5577 5576 5575 5574 5573 5572 5572 5572 5574 5573 5575 5569 5565 5564 5558 5554 5552 5545 5540 5538 5535
5550 5547 5553 5558 5559 5560 5560 5567 5568 5560 5560 5554 5577 5568 5572 5575 5575 5577 5579 5579 5577 5575 5576 5574 5572 5571 5570 5570 5570 5571 5570 5568 5569 5567 5564 5559 5557 5552 5548 5542 5536 5534 5529 5526
5547 5535 5547 5551 5561 5561 5560 5570 5570 5570 5566 5565 5565 5567 5581 5576 5578 5575 5574 5575 5574 5573 5574 5574 5574 5573 5569 5567 5565 5565 5563 5564 5563 5559 5556 5552 5549 5543 5539 5533 5529 5525 5519 5515
5537 5527 5530 5537 5553 5552 5558 5568 5574 5570 5567 5567 5559 5566 5568 5564 5563 5561 5563 5567 5565 5564 5565 5568 5567 5565 5565 5566 5564 5560 5559 5556 5553 5549 5546 5541 5538 5533 5528 5523 5518 5511 5506 5502
5538 5530 5522 5514 5533 5530 5560 5561 5561 5560 5553 5554 5559 5562 5561 5557 5556 5553 5552 5551 5551 5554 5554 5554 5554 5556 5559 5560 5557 5555 5551 5546 5542 5539 5536 5532 5528 5523 5518 5512 5507 5502 5498 5494
5534 5525 5513 5502 5515 5543 5560 5553 5552 5550 5543 5543 5545 5552 5551 5552 5546 5540 5544 5544 5543 5544 5544 5544 5543 5545 5545 5547 5546 5543 5539 5534 5531 5527 5526 5522 5517 5512 5507 5501 5496 5491 5486 5480
5523 5518 5509 5513 5508 5526 5550 5547 5546 5543 5540 5539 5539 5537 5537 5541 5536 5530 5529 5534 5533 5534 5535 5533 5534 5534 5534 5535 5535 5531 5527 5524 5520 5518 5516 5512 5507 5501 5495 5490 5484 5479 5473 5466
5497 5498 5497 5492 5493 5519 5547 5539 5536 5528 5526 5527 5529 5528 5527 5526 5519 5519 5521 5521 5521 5522 5522 5524 5523 5523 5523 5523 5522 5519 5516 5513 5512 5508 5504 5499 5494 5488 5483 5477 5470 5463 5457 5450
5510 5498 5493 5498 5492 5498 5537 5530 5527 5529 5523 5520 5516 5514 5512 5512 5512 5512 5510 5508 5509 5509 5510 5510 5510 5510 5509 5508 5506 5504 5504 5501 5496 5492 5488 5482 5477 5471 5465 5459 5452 5445 5437 5429
5517 5533 5515 5517 5519 5527 5527 5521 5518 5518 5517 5513 5509 5504 5501 5500 5501 5500 5498 5496 5493 5492 5491 5492 5492 5493 5494 5494 5491 5488 5482 5482 5479 5475 5470 5465 5460 5453 5447 5440 5432 5424 5416 5408
5523 5528 5516 5519 5527 5518 5510 5510 5506 5506 5503 5503 5500 5496 5494 5490 5487 5484 5481 5478 5475 5474 5473 5473 5474 5475 5473 5472 5470 5465 5464 5463 5461 5456 5450 5444 5440 5433 5427 5421 5412 5404 5398 5392
5512 5507 5507 5500 5508 5505 5501 5495 5495 5495 5491 5487 5484 5484 5482 5477 5473 5468 5465 5460 5458 5456 5456 5455 5454 5454 5453 5451 5448 5446 5444 5443 5438 5434 5429 5424 5420 5415 5409 5403 5396 5389 5383 5377
5502 5499 5483 5486 5501 5494 5491 5489 5487 5481 5478 5471 5468 5467 5463 5460 5457 5454 5448 5445 5443 5440 5439 5437 5435 5434 5433 5430 5427 5423 5421 5420 5417 5412 5408 5404 5399 5393 5387 5381 5375 5371 5365 5357